STARLINK-11587, 63310

Orbit data source: Space-Track

STARLINK-11587, 63310 is a payload satellite owned by SpaceX/Seattle (US) in LEO that was launched on Tue, 18 Mar 2025 UTC via an FALCON 9 launch vehicle from the Air Force Eastern Test Range (AFETR). Payload-class satellites include a variety of spacecraft equipped with specific instruments for various scientific and technological missions. These include communications satellites like Starlink; space stations such as the ISS; scientific satellites like the Hubble; Earth observation satellites from companies like Planet Labs, Umbra, and HawkEye 360; GPS; miniature CubeSats for education and research; and military/defense satellites.

Loading next visibility...
Identifier
63310, 2025-057D
Orbit
LEO
Country
Flag of USUS
Related business
Manufacturer
SpaceX/Seattle
Mission
Operational Commercial Communications
Bus & Motor
STARLINK V2MD, Unknown motor
Mass
960 kg wet, ~910 kg dry
Launch date (UTC)
2025-03-18 (11 months ago)
Launch vehicle
FALCON 9
Launch site
Air Force Eastern Test Range (AFETR)
Object type
Payload
Rocket body
Debris
Shape & HBR
Box + 2 Pan, 18.1 m
Radar Cross Section
36.964 m², Large (>1 m²)

Expand to show TLE details & history
Last TLE update: 8 hours ago

TLE from 8 hours ago
0 STARLINK-11587
1 63310U 25057D   26034.60838400  .00223414  00000-0  16976-2 0  9993
2 63310  43.0001 110.3108 0001250 269.8677  90.2048 15.70848522 51810
Epoch: 2026-02-03T14:36Z
TLE epoch observation values (Epoch: 2026-02-03T14:36:04.377Z)
Latitude
0.00002°
Longitude
117.50571°
Altitude
356.245 km
Speed
7.697 km/s
True Right ascension
07h 21m 14s
True Declination
0° 00' 00"
Sunlit
Object was in full shadow at epoch
Visualization orbit readout
Latitude
Unknown
Longitude
Unknown
Altitude
Unknown
Speed
Unknown
Apparent Right ascension
Unknown
Apparent Declination
Unknown
Sunlit
N/A
Visualization observer readout
Local Sidereal Time
00:20:15
Azimuth
Unknown
Elevation
Unknown
Doppler factor
Unknown
Orbital elements
Apogee altitude
359.294 km
Perigee altitude
357.61 km
Semi-major axis
6,736.589 km
Eccentricity
0.00013
Inclination
43.0001°
RAAN
110.3108°
Arg. of periapsis
269.8677°
True anomaly
90.21912°
Mean anomaly
90.2048°
Eccentric anomaly
90.21196°
Mean motion
3.92539 °/min
Orbital period
91.71 mins
BSTAR
0.0016976
Loading maneuver chart data...
Computing Atmospheric mass density...
Loading historical data...
Loading historical data...
Loading historical data...
Loading historical data...
Loading historical data...
Loading historical data...
Loading historical data...

Documentation

Showing up to 5 results
|